Location: Unspecified
(0.0000°N, 0.0000°E)
Time: 11:12:37
(UTC+00:00)

Courier 1B - Pass Details

Date: 21 November 2019
Orbit: 963 x 1209 km, 28.3° (Epoch: 14 December)

Event Time Altitude Azimuth Distance (km) Brightness Sun altitude
Rises 00:25:21 0° 234° (SW) 4,110 - -67.9°
Reaches altitude 10° 00:28:16 10° 231° (SW) 3,139 - -67.6°
Maximum altitude 00:36:03 66° 150° (SSE) 1,275 - -66.7°
Drops below altitude 10° 00:43:30 10° 69° (ENE) 3,018 - -65.7°
Sets 00:46:15 0° 66° (ENE) 3,943 - -65.3°
